Location: Peach Mountain Observatory
(42.3967°N, 83.9367°W)
Time: 02:23:04
(UTC-05:00)

S-56A Canister/Altair - Pass Details

Date: 31 January 2020
Orbit: 633 x 2499 km, 38.9° (Epoch: 20 February)

Event Time Altitude Azimuth Distance (km) Brightness Sun altitude
Rises 18:11:01 0° 231° (SW) 5,332 13.5 -4.8°
Reaches altitude 10° 18:15:10 10° 226° (SW) 4,041 12.4 -5.5°
Maximum altitude 18:24:25 43° 160° (SSE) 1,738 9.3 -7.2°
Drops below altitude 10° 18:30:43 10° 91° (E) 2,756 9.8 -8.3°
Enters shadow 18:31:00 - 90° (E) 2,847 9.8 -8.3°
Sets 18:33:02 0° 84° (E) 3,516 - -8.7°
